Time,TemperatureF,DewpointF,PressureIn,WindDirection,WindDirectionDegrees,WindSpeedMPH,WindSpeedGustMPH,Humidity,HourlyPrecipIn,Conditions,Clouds,dailyrainin,SoftwareType,DateUTC
2013-01-27 00:22:00,19.0,3.0,30.26,WNW,300,16.0,20.0,48,-99.99,,,-99.99,,2013-01-27 05:22:00,
2013-01-27 00:31:00,18.0,3.0,30.26,WNW,300,17.0,22.0,50,-99.99,,,-99.99,,2013-01-27 05:31:00,
2013-01-27 00:41:00,18.0,3.0,30.26,WNW,300,17.0,22.0,50,-99.99,,,-99.99,,2013-01-27 05:41:00,
2013-01-27 00:51:00,18.0,4.0,30.26,WNW,300,17.0,21.0,52,-99.99,,,-99.99,,2013-01-27 05:51:00,
2013-01-27 01:01:00,18.0,4.0,30.26,WNW,300,17.0,21.0,52,-99.99,,,-99.99,,2013-01-27 06:01:00,
2013-01-27 01:11:00,18.0,4.0,30.27,WNW,300,17.0,21.0,53,-99.99,,,-99.99,,2013-01-27 06:11:00,
2013-01-27 01:21:00,18.0,4.0,30.27,WNW,300,18.0,22.0,52,-99.99,,,-99.99,,2013-01-27 06:21:00,
2013-01-27 01:31:00,18.0,4.0,30.27,WNW,300,18.0,22.0,52,-99.99,,,-99.99,,2013-01-27 06:31:00,
2013-01-27 01:41:00,18.0,3.0,30.27,WNW,300,18.0,23.0,51,-99.99,,,-99.99,,2013-01-27 06:41:00,
2013-01-27 01:51:00,18.0,4.0,30.27,WNW,290,21.0,24.0,53,-99.99,,,-99.99,,2013-01-27 06:51:00,
2013-01-27 02:01:00,18.0,4.0,30.27,WNW,290,21.0,24.0,53,-99.99,,,-99.99,,2013-01-27 07:01:00,
2013-01-27 02:21:00,17.0,4.0,30.28,WNW,290,18.0,22.0,54,-99.99,,,-99.99,,2013-01-27 07:21:00,
2013-01-27 02:31:00,17.0,4.0,30.29,WNW,300,18.0,22.0,53,-99.99,,,-99.99,,2013-01-27 07:31:00,
2013-01-27 02:41:00,17.0,4.0,30.29,WNW,300,18.0,22.0,53,-99.99,,,-99.99,,2013-01-27 07:41:00,
2013-01-27 02:51:00,17.0,4.0,30.29,WNW,300,18.0,22.0,56,-99.99,,,-99.99,,2013-01-27 07:51:00,
2013-01-27 03:01:00,17.0,4.0,30.29,WNW,300,18.0,22.0,56,-99.99,,,-99.99,,2013-01-27 08:01:00,
2013-01-27 03:11:00,17.0,4.0,30.30,WNW,290,14.0,16.0,56,-99.99,,,-99.99,,2013-01-27 08:11:00,
2013-01-27 03:21:00,17.0,4.0,30.29,West,280,17.0,21.0,56,-99.99,,,-99.99,,2013-01-27 08:21:00,
2013-01-27 03:31:00,17.0,4.0,30.29,West,280,17.0,21.0,56,-99.99,,,-99.99,,2013-01-27 08:31:00,
2013-01-27 03:41:00,17.0,4.0,30.29,WNW,290,17.0,21.0,57,-99.99,,,-99.99,,2013-01-27 08:41:00,
2013-01-27 03:52:00,17.0,5.0,30.29,WNW,290,17.0,21.0,58,-99.99,,,-99.99,,2013-01-27 08:52:00,
2013-01-27 04:02:00,17.0,5.0,30.29,WNW,290,17.0,21.0,58,-99.99,,,-99.99,,2013-01-27 09:02:00,
2013-01-27 04:11:00,17.0,6.0,30.29,WNW,290,17.0,22.0,59,-99.99,,,-99.99,,2013-01-27 09:11:00,
2013-01-27 04:21:00,17.0,6.0,30.30,WNW,290,15.0,18.0,61,-99.99,,,-99.99,,2013-01-27 09:21:00,
2013-01-27 04:31:00,17.0,6.0,30.30,WNW,290,15.0,18.0,61,-99.99,,,-99.99,,2013-01-27 09:31:00,
2013-01-27 04:41:00,17.0,6.0,30.31,WNW,290,15.0,18.0,61,-99.99,,,-99.99,,2013-01-27 09:41:00,
2013-01-27 04:51:00,17.0,6.0,30.32,WNW,290,15.0,17.0,62,-99.99,,,-99.99,,2013-01-27 09:51:00,
2013-01-27 05:01:00,17.0,6.0,30.32,WNW,290,15.0,17.0,62,-99.99,,,-99.99,,2013-01-27 10:01:00,
2013-01-27 05:11:00,16.0,6.0,30.32,West,280,14.0,17.0,61,-99.99,,,-99.99,,2013-01-27 10:11:00,
2013-01-27 05:21:00,17.0,7.0,30.32,WNW,290,14.0,16.0,64,-99.99,,,-99.99,,2013-01-27 10:21:00,
2013-01-27 05:31:00,17.0,7.0,30.32,WNW,290,13.0,15.0,66,-99.99,,,-99.99,,2013-01-27 10:31:00,
2013-01-27 05:41:00,17.0,7.0,30.32,WNW,290,13.0,15.0,66,-99.99,,,-99.99,,2013-01-27 10:41:00,
2013-01-27 05:51:00,17.0,7.0,30.33,WNW,290,13.0,15.0,66,-99.99,,,-99.99,,2013-01-27 10:51:00,
2013-01-27 06:01:00,17.0,7.0,30.33,WNW,290,13.0,15.0,66,-99.99,,,-99.99,,2013-01-27 11:01:00,
2013-01-27 06:11:00,16.0,7.0,30.33,West,280,14.0,17.0,66,-99.99,,,-99.99,,2013-01-27 11:11:00,
2013-01-27 06:21:00,16.0,8.0,30.33,WNW,290,15.0,17.0,67,-99.99,,,-99.99,,2013-01-27 11:21:00,
2013-01-27 06:31:00,16.0,8.0,30.33,WNW,290,15.0,17.0,67,-99.99,,,-99.99,,2013-01-27 11:31:00,
2013-01-27 06:41:00,16.0,7.0,30.33,WNW,290,14.0,16.0,67,-99.99,,,-99.99,,2013-01-27 11:41:00,
2013-01-27 06:52:00,16.0,8.0,30.34,West,280,13.0,15.0,70,-99.99,,,-99.99,,2013-01-27 11:52:00,
2013-01-27 07:02:00,16.0,8.0,30.34,West,280,13.0,15.0,70,-99.99,,,-99.99,,2013-01-27 12:02:00,
2013-01-27 07:11:00,17.0,9.0,30.34,West,280,15.0,17.0,70,-99.99,,,-99.99,,2013-01-27 12:11:00,
2013-01-27 07:21:00,17.0,9.0,30.35,West,280,14.0,16.0,71,-99.99,,,-99.99,,2013-01-27 12:21:00,
2013-01-27 07:32:00,17.0,9.0,30.35,West,280,14.0,16.0,71,-99.99,,,-99.99,,2013-01-27 12:32:00,
2013-01-27 07:41:00,17.0,9.0,30.36,West,280,14.0,16.0,69,-99.99,,,-99.99,,2013-01-27 12:41:00,
2013-01-27 07:52:00,17.0,8.0,30.37,West,280,13.0,16.0,68,-99.99,,,-99.99,,2013-01-27 12:52:00,
2013-01-27 08:01:00,17.0,8.0,30.37,West,280,13.0,16.0,68,-99.99,,,-99.99,,2013-01-27 13:01:00,
2013-01-27 08:11:00,17.0,9.0,30.37,West,280,13.0,15.0,70,-99.99,,,-99.99,,2013-01-27 13:11:00,
2013-01-27 08:22:00,17.0,8.0,30.37,West,280,13.0,14.0,68,-99.99,,,-99.99,,2013-01-27 13:22:00,
2013-01-27 08:31:00,18.0,9.0,30.39,West,280,13.0,15.0,67,-99.99,,,-99.99,,2013-01-27 13:31:00,
2013-01-27 08:41:00,18.0,9.0,30.39,West,280,13.0,15.0,67,-99.99,,,-99.99,,2013-01-27 13:41:00,
2013-01-27 08:51:00,18.0,8.0,30.40,WNW,290,9.0,11.0,64,-99.99,,,-99.99,,2013-01-27 13:51:00,
2013-01-27 09:01:00,18.0,8.0,30.40,WNW,290,9.0,11.0,64,-99.99,,,-99.99,,2013-01-27 14:01:00,
2013-01-27 09:11:00,19.0,8.0,30.39,WNW,300,11.0,15.0,62,-99.99,,,-99.99,,2013-01-27 14:11:00,
2013-01-27 09:21:00,19.0,7.0,30.39,WNW,300,14.0,17.0,57,-99.99,,,-99.99,,2013-01-27 14:21:00,
2013-01-27 09:31:00,21.0,7.0,30.39,NW,310,14.0,18.0,54,-99.99,,,-99.99,,2013-01-27 14:31:00,
2013-01-27 09:42:00,21.0,7.0,30.39,NW,310,14.0,18.0,54,-99.99,,,-99.99,,2013-01-27 14:42:00,
2013-01-27 09:52:00,22.0,6.0,30.40,NW,310,15.0,20.0,50,-99.99,,,-99.99,,2013-01-27 14:52:00,
2013-01-27 10:01:00,22.0,6.0,30.40,NW,310,15.0,20.0,50,-99.99,,,-99.99,,2013-01-27 15:01:00,
2013-01-27 10:11:00,22.0,4.0,30.39,NW,310,20.0,26.0,45,-99.99,,,-99.99,,2013-01-27 15:11:00,
2013-01-27 10:21:00,24.0,4.0,30.40,NW,320,20.0,25.0,42,-99.99,,,-99.99,,2013-01-27 15:21:00,
2013-01-27 10:31:00,24.0,4.0,30.40,NW,320,20.0,25.0,42,-99.99,,,-99.99,,2013-01-27 15:31:00,
2013-01-27 10:42:00,24.0,3.0,30.40,NW,320,20.0,25.0,40,-99.99,,,-99.99,,2013-01-27 15:42:00,
2013-01-27 10:52:00,25.0,3.0,30.40,NW,320,18.0,24.0,38,-99.99,,,-99.99,,2013-01-27 15:52:00,
2013-01-27 11:01:00,25.0,3.0,30.40,NW,320,18.0,24.0,38,-99.99,,,-99.99,,2013-01-27 16:01:00,
2013-01-27 11:11:00,25.0,2.0,30.41,NW,310,18.0,24.0,36,-99.99,,,-99.99,,2013-01-27 16:11:00,
2013-01-27 11:21:00,26.0,3.0,30.41,NW,310,17.0,24.0,35,-99.99,,,-99.99,,2013-01-27 16:21:00,
2013-01-27 11:31:00,26.0,3.0,30.41,NW,310,17.0,24.0,35,-99.99,,,-99.99,,2013-01-27 16:31:00,
2013-01-27 11:41:00,26.0,2.0,30.40,NW,310,18.0,22.0,35,-99.99,,,-99.99,,2013-01-27 16:41:00,
2013-01-27 11:52:00,27.0,1.0,30.40,NW,320,20.0,25.0,32,-99.99,,,-99.99,,2013-01-27 16:52:00,
2013-01-27 12:01:00,27.0,1.0,30.40,NW,320,20.0,25.0,32,-99.99,,,-99.99,,2013-01-27 17:01:00,
2013-01-27 12:11:00,27.0,2.0,30.40,WNW,300,17.0,22.0,32,-99.99,,,-99.99,,2013-01-27 17:11:00,
2013-01-27 12:21:00,28.0,0.0,30.39,NW,310,20.0,23.0,30,-99.99,,,-99.99,,2013-01-27 17:21:00,
2013-01-27 12:31:00,28.0,1.0,30.38,NW,320,18.0,24.0,30,-99.99,,,-99.99,,2013-01-27 17:31:00,
2013-01-27 12:41:00,28.0,1.0,30.38,NW,320,18.0,24.0,30,-99.99,,,-99.99,,2013-01-27 17:41:00,
2013-01-27 12:52:00,29.0,2.0,30.38,NW,320,17.0,24.0,30,-99.99,,,-99.99,,2013-01-27 17:52:00,
2013-01-27 13:01:00,29.0,2.0,30.38,NW,320,17.0,24.0,30,-99.99,,,-99.99,,2013-01-27 18:01:00,
2013-01-27 13:11:00,29.0,1.0,30.38,NW,310,18.0,23.0,30,-99.99,,,-99.99,,2013-01-27 18:11:00,
2013-01-27 13:21:00,29.0,1.0,30.37,NW,310,16.0,23.0,28,-99.99,,,-99.99,,2013-01-27 18:21:00,
2013-01-27 13:31:00,29.0,1.0,30.37,NW,310,16.0,23.0,28,-99.99,,,-99.99,,2013-01-27 18:31:00,
2013-01-27 13:41:00,29.0,0.0,30.37,WNW,300,16.0,21.0,27,-99.99,,,-99.99,,2013-01-27 18:41:00,
2013-01-27 13:51:00,30.0,0.0,30.37,NW,310,18.0,23.0,26,-99.99,,,-99.99,,2013-01-27 18:51:00,
2013-01-27 14:01:00,30.0,0.0,30.37,NW,310,18.0,23.0,26,-99.99,,,-99.99,,2013-01-27 19:01:00,
2013-01-27 14:11:00,32.0,1.0,30.37,NNW,330,16.0,20.0,26,-99.99,,,-99.99,,2013-01-27 19:11:00,
2013-01-27 14:21:00,31.0,1.0,30.36,NW,320,16.0,21.0,26,-99.99,,,-99.99,,2013-01-27 19:21:00,
2013-01-27 14:31:00,31.0,1.0,30.36,NW,320,16.0,21.0,26,-99.99,,,-99.99,,2013-01-27 19:31:00,
2013-01-27 14:41:00,32.0,1.0,30.36,NNW,330,15.0,17.0,25,-99.99,,,-99.99,,2013-01-27 19:41:00,
2013-01-27 14:51:00,32.0,1.0,30.37,NW,320,14.0,17.0,25,-99.99,,,-99.99,,2013-01-27 19:51:00,
2013-01-27 15:01:00,32.0,1.0,30.37,NW,320,14.0,17.0,25,-99.99,,,-99.99,,2013-01-27 20:01:00,
2013-01-27 15:11:00,33.0,1.0,30.36,NW,320,16.0,22.0,25,-99.99,,,-99.99,,2013-01-27 20:11:00,
2013-01-27 15:21:00,33.0,0.0,30.36,NW,320,17.0,23.0,23,-99.99,,,-99.99,,2013-01-27 20:21:00,
2013-01-27 15:31:00,33.0,0.0,30.36,NW,320,17.0,23.0,23,-99.99,,,-99.99,,2013-01-27 20:31:00,
2013-01-27 15:41:00,33.0,0.0,30.37,NW,320,17.0,21.0,23,-99.99,,,-99.99,,2013-01-27 20:41:00,
2013-01-27 15:51:00,33.0,0.0,30.37,NNW,330,14.0,17.0,23,-99.99,,,-99.99,,2013-01-27 20:51:00,
2013-01-27 16:01:00,33.0,0.0,30.37,NNW,330,14.0,17.0,23,-99.99,,,-99.99,,2013-01-27 21:01:00,
2013-01-27 16:11:00,33.0,0.0,30.37,NW,310,17.0,23.0,23,-99.99,,,-99.99,,2013-01-27 21:11:00,
2013-01-27 16:21:00,33.0,1.0,30.37,NW,310,14.0,18.0,24,-99.99,,,-99.99,,2013-01-27 21:21:00,
2013-01-27 16:31:00,33.0,1.0,30.37,NW,310,14.0,18.0,24,-99.99,,,-99.99,,2013-01-27 21:31:00,
2013-01-27 16:41:00,33.0,-1.0,30.37,NW,320,17.0,23.0,22,-99.99,,,-99.99,,2013-01-27 21:41:00,
2013-01-27 16:51:00,33.0,-1.0,30.38,NW,310,14.0,16.0,22,-99.99,,,-99.99,,2013-01-27 21:51:00,
2013-01-27 17:01:00,33.0,-1.0,30.38,NW,310,14.0,16.0,22,-99.99,,,-99.99,,2013-01-27 22:01:00,
2013-01-27 17:11:00,33.0,0.0,30.38,NW,320,10.0,14.0,24,-99.99,,,-99.99,,2013-01-27 22:11:00,
2013-01-27 17:21:00,32.0,0.0,30.39,NW,310,13.0,16.0,24,-99.99,,,-99.99,,2013-01-27 22:21:00,
2013-01-27 17:31:00,32.0,0.0,30.39,NW,310,13.0,16.0,24,-99.99,,,-99.99,,2013-01-27 22:31:00,
2013-01-27 17:42:00,32.0,0.0,30.40,NW,310,14.0,17.0,25,-99.99,,,-99.99,,2013-01-27 22:42:00,
2013-01-27 17:51:00,32.0,0.0,30.41,NW,310,13.0,15.0,25,-99.99,,,-99.99,,2013-01-27 22:51:00,
2013-01-27 18:01:00,32.0,0.0,30.41,NW,310,13.0,15.0,25,-99.99,,,-99.99,,2013-01-27 23:01:00,
2013-01-27 18:11:00,31.0,2.0,30.42,NW,310,9.0,11.0,27,-99.99,,,-99.99,,2013-01-27 23:11:00,
2013-01-27 18:21:00,31.0,2.0,30.42,WNW,290,8.0,10.0,28,-99.99,,,-99.99,,2013-01-27 23:21:00,
2013-01-27 18:31:00,31.0,2.0,30.42,WNW,300,9.0,11.0,27,-99.99,,,-99.99,,2013-01-27 23:31:00,
2013-01-27 18:41:00,31.0,2.0,30.42,WNW,300,9.0,11.0,27,-99.99,,,-99.99,,2013-01-27 23:41:00,
2013-01-27 18:52:00,30.0,2.0,30.43,WNW,290,11.0,14.0,29,-99.99,,,-99.99,,2013-01-27 23:52:00,
2013-01-27 19:01:00,30.0,2.0,30.43,WNW,290,11.0,14.0,29,-99.99,,,-99.99,,2013-01-28 00:01:00,
2013-01-27 19:11:00,30.0,1.0,30.43,WNW,300,10.0,13.0,27,-99.99,,,-99.99,,2013-01-28 00:11:00,
2013-01-27 19:21:00,30.0,1.0,30.43,WNW,300,10.0,13.0,27,-99.99,,,-99.99,,2013-01-28 00:21:00,
2013-01-27 19:31:00,30.0,1.0,30.43,WNW,300,10.0,13.0,27,-99.99,,,-99.99,,2013-01-28 00:31:00,
2013-01-27 19:41:00,30.0,1.0,30.43,WNW,300,10.0,13.0,27,-99.99,,,-99.99,,2013-01-28 00:41:00,